Regional Weather Roundup
Issued by NWS Cleveland, OH

Home | Current Version | Previous Version | Graphics & Text | Print | Product List | Glossary On
Versions: 1 2 3 4 5 6 7 8 9 10 11 12 13 14 15 16 17 18 19 20 21 22 23 24 25 26 27 28 29 30 31 32 33 34 35 36 37 38 39 40 41 42 43 44 45 46 47 48 49 50
000
ASUS41 KCLE 010302
RWRCLE
OHIO REGIONAL WEATHER ROUNDUP
NATIONAL WEATHER SERVICE CLEVELAND, OH
1100 PM EDT TUE MAY 31 2016

NOTE: "FAIR" INDICATES FEW OR NO CLOUDS BELOW 12,000 FEET WITH NO
SIGNIFICANT WEATHER AND/OR OBSTRUCTIONS TO VISIBILITY.

OHZ001>008-015>018-024>027-034-035-043-044-010400-
   NORTHWEST OHIO

CITY           SKY/WX    TMP DP  RH WIND       PRES   REMARKS
DEFIANCE       CLEAR     70  46  42 CALM      30.02R
FINDLAY        PTCLDY    71  45  39 E9        30.01S
TOLEDO EXPRESS PTCLDY    66  50  56 SE3       30.02R
TOLEDO EXEC    PTCLDY    66  51  58 E5        30.03R
LIMA           PTCLDY    70  46  42 E10       30.01S
$$

OHZ009>014-019>023-028>033-038-089-010400-
   NORTHEAST OHIO

CITY           SKY/WX    TMP DP  RH WIND       PRES   REMARKS
CLE-HOPKINS    MOCLDY    71  49  45 NE10      30.06R
CLE-LAKEFRONT  PTCLDY    69  57  65 NE9       30.04R
CUY CO. ARPT   PTCLDY    64  55  72 E6        30.05S
LORAIN-ELYRIA  CLEAR     66  49  54 E6        30.05R
ASHTABULA      PTCLDY    57  54  89 CALM      30.06R
AKRON-CANTON   PTCLDY    67  48  50 NE8       30.04S
WOOSTER        CLEAR     65  50  58 NE3       30.05R
MANSFIELD      PTCLDY    64  50  60 NE7       30.04S
YOUNGSTOWN     CLOUDY    65  50  58 NE7       30.05S
$$

OHZ042-051>053-060>062-070>072-077>081-010400-
  SOUTHWEST OHIO

CITY           SKY/WX    TMP DP  RH WIND       PRES   REMARKS
CINC-COVINGTON CLEAR     71  60  68 CALM      29.98R
CINC-LUNKEN    CLEAR     67  64  90 CALM      29.98R
HAMILTON       CLEAR     67  63  87 CALM      29.98R
DAYTON         CLOUDY    74  55  51 E9        30.01R
WRIGHT-PAT AFB CLOUDY    75  58  53 NE7       29.99R
DAYTON GENERAL CLOUDY    74  60  61 E3        29.98R
WILMINGTON     PTCLDY    71  61  70 CALM      29.99R
$$

OHZ036-037-039>041-045>050-054>059-063>069-073>076-082>088-010400-
  CENTRAL AND SOUTHEAST OHIO

CITY           SKY/WX    TMP DP  RH WIND       PRES   REMARKS
COLUMBUS       MOCLDY    72  57  59 NE5       30.00R
OSU AIRPORT    MOCLDY    71  57  61 NE6       30.00R
BOLTON FIELD   NOT AVBL
RICKENBACK AFB NOT AVBL
NEWARK         CLEAR     74  57  55 NE5       30.00R
MARION         PTCLDY    66  51  58 E7        30.02S
LANCASTER      PTCLDY    75  59  57 NE8       30.00R
ZANESVILLE     CLEAR     74  60  61 CALM      30.00S
NEW PHILLY     CLEAR     70  56  61 CALM      30.03S
$$



USA.gov is the U.S. government's official web portal to all federal, state and local government web resources and services.